Simultaneous Nadir Overpasses (SNOs) Predictions

Prediction of SNOs between AQUA and METOP-B Satellite Orbit:

Table of predicted SNOs for the next 14.0 days since TLE Epoch: 6/2/2017
Index Date (AQUA) Time (AQUA) Lat,Lon (AQUA) SZA (AQUA ) Date (METOP-B) Time (METOP-B) Lat,Lon (METOP-B) SZA (METOP-B ) Distance(km) Time Diff (sec)
1 06/04/2017 17:46:45 73.74, -92.27 51.21 06/04/2017 17:45:36 73.74, -92.27 51.22 0.12 69
2 06/04/2017 18:36:12 -73.84, 75.15 128.69 06/04/2017 18:36:16 -73.82, 75.26 128.70 3.72 4
3 06/04/2017 19:25:41 73.89,-117.33 51.37 06/04/2017 19:26:54 73.91,-117.19 51.38 5.12 73
4 06/07/2017 13:20:59 73.73, -25.81 50.92 06/07/2017 13:19:57 73.74, -25.86 50.94 1.94 62
5 06/07/2017 14:10:26 -73.82, 141.62 128.99 06/07/2017 14:10:37 -73.83, 141.67 128.98 1.57 11
6 06/07/2017 15:00:00 74.14, -51.46 51.35 06/07/2017 15:01:10 74.16, -50.17 51.33 39.11 70
7 06/10/2017 08:55:12 73.73, 40.63 50.69 06/10/2017 08:54:17 73.74, 40.55 50.71 2.95 55
8 06/10/2017 09:44:39 -73.82,-151.92 129.22 06/10/2017 09:44:57 -73.83,-151.92 129.21 1.18 18
9 06/10/2017 10:34:18 74.40, 14.38 51.40 06/10/2017 10:35:25 74.41, 16.86 51.33 74.08 67
10 06/13/2017 04:29:26 73.73, 107.06 50.52 06/13/2017 04:28:38 73.74, 106.95 50.53 3.42 48
11 06/13/2017 05:18:53 -73.82, -85.48 129.40 06/13/2017 05:19:18 -73.82, -85.52 129.39 1.43 25
12 06/16/2017 00:03:40 73.75, 173.46 50.41 06/16/2017 00:02:58 73.78, 173.46 50.45 3.55 42
13 06/16/2017 00:53:07 -73.83, -19.06 129.51 06/16/2017 00:53:39 -73.82, -19.12 129.52 1.98 32




NCC Satellite Simultaneous Nadir Overpasses (SNOs) Prediction Service
